ND1EB KHPN-ZZZZ

Flight info

Callsign ND1EB
Flight time N/A
Altitude VFR/025
Route SKY S
Aircraft RV8/L-DOV/C

Departure

Time 2026-04-25 12:28
Airport Westchester County Airport (KHPN)

Arrival

Time N/A
Airport ZZZZ
Time Latitude Longitude Altitude Speed Heading
2026-04-25 12:21 41.06389 -73.70947 403 ft 0 kts 192°
2026-04-25 12:22 41.06391 -73.70956 403 ft 2 kts 357°
2026-04-25 12:22 41.06395 -73.70900 401 ft 7 kts 90°
2026-04-25 12:22 41.06400 -73.70879 400 ft 1 kts 47°
2026-04-25 12:23 41.06405 -73.70876 400 ft 0 kts 12°
2026-04-25 12:23 41.06409 -73.70874 400 ft 7 kts 19°
2026-04-25 12:23 41.06436 -73.70790 398 ft 17 kts 104°
2026-04-25 12:23 41.06460 -73.70723 398 ft 17 kts 22°
2026-04-25 12:24 41.06571 -73.70731 399 ft 12 kts 321°
2026-04-25 12:24 41.06652 -73.70803 399 ft 15 kts 335°
2026-04-25 12:24 41.06757 -73.70871 402 ft 16 kts 325°
2026-04-25 12:24 41.06839 -73.70947 405 ft 14 kts 333°
2026-04-25 12:25 41.06924 -73.71012 407 ft 14 kts 329°
2026-04-25 12:25 41.06999 -73.71064 412 ft 10 kts 356°
2026-04-25 12:25 41.07033 -73.71045 414 ft 0 kts 34°
2026-04-25 12:27 41.07067 -73.71017 416 ft 10 kts 33°
2026-04-25 12:27 41.07084 -73.70971 417 ft 9 kts 147°
2026-04-25 12:27 41.06850 -73.70764 437 ft 75 kts 137°
2026-04-25 12:28 41.06235 -73.70400 705 ft 109 kts 153°
2026-04-25 12:28 41.05538 -73.69971 1152 ft 124 kts 150°
2026-04-25 12:28 41.04683 -73.69425 1498 ft 140 kts 147°
2026-04-25 12:28 41.03864 -73.69064 1655 ft 119 kts 167°
2026-04-25 12:29 41.03052 -73.69375 1506 ft 133 kts 214°
2026-04-25 12:29 41.02695 -73.70495 1495 ft 133 kts 258°
2026-04-25 12:29 41.02557 -73.71697 1492 ft 134 kts 256°
2026-04-25 12:29 41.02425 -73.72954 1496 ft 141 kts 257°
2026-04-25 12:30 41.02334 -73.73816 1507 ft 143 kts 258°
2026-04-25 12:30 41.02131 -73.75549 1500 ft 144 kts 257°
2026-04-25 12:30 41.01972 -73.76862 1501 ft 141 kts 257°
2026-04-25 12:30 41.02042 -73.78060 1488 ft 120 kts 278°
2026-04-25 12:31 41.02174 -73.79083 1486 ft 110 kts 273°
2026-04-25 12:31 41.02248 -73.80080 1485 ft 108 kts 272°
2026-04-25 12:31 41.02286 -73.81095 1584 ft 116 kts 258°
2026-04-25 12:31 41.02168 -73.82196 1734 ft 124 kts 257°
2026-04-25 12:32 41.02045 -73.83372 1898 ft 132 kts 257°
2026-04-25 12:32 41.01925 -73.84566 1999 ft 129 kts 257°
2026-04-25 12:32 41.01807 -73.85786 2009 ft 137 kts 257°
2026-04-25 12:32 41.01678 -73.87005 2002 ft 130 kts 250°
2026-04-25 12:33 41.01262 -73.87989 1998 ft 121 kts 228°
2026-04-25 12:33 41.00732 -73.88828 1993 ft 116 kts 214°
2026-04-25 12:33 41.00072 -73.89405 1988 ft 112 kts 198°
2026-04-25 12:33 40.99358 -73.89852 1996 ft 114 kts 197°
2026-04-25 12:34 40.98635 -73.90217 1997 ft 112 kts 190°
2026-04-25 12:34 40.97894 -73.90544 2000 ft 112 kts 190°
2026-04-25 12:34 40.97141 -73.90867 2007 ft 115 kts 189°
2026-04-25 12:34 40.96625 -73.91089 2007 ft 120 kts 190°
2026-04-25 12:35 40.95554 -73.91550 2003 ft 121 kts 191°
2026-04-25 12:35 40.94760 -73.91880 2002 ft 122 kts 190°
2026-04-25 12:35 40.93943 -73.92212 2007 ft 124 kts 190°
2026-04-25 12:35 40.93115 -73.92537 2007 ft 124 kts 191°
2026-04-25 12:36 40.92284 -73.92864 2002 ft 124 kts 190°
2026-04-25 12:36 40.91468 -73.93215 1988 ft 122 kts 194°
2026-04-25 12:36 40.90689 -73.93459 1985 ft 114 kts 181°
2026-04-25 12:36 40.89903 -73.93649 1999 ft 118 kts 186°
2026-04-25 12:37 40.89093 -73.93933 2002 ft 121 kts 187°
2026-04-25 12:37 40.88286 -73.94241 1998 ft 119 kts 188°
2026-04-25 12:37 40.87494 -73.94536 1987 ft 116 kts 188°
2026-04-25 12:37 40.86736 -73.94825 1990 ft 114 kts 190°
2026-04-25 12:38 40.86016 -73.95278 1988 ft 115 kts 200°
2026-04-25 12:38 40.85322 -73.95776 1988 ft 113 kts 200°
2026-04-25 12:38 40.84621 -73.96272 1999 ft 115 kts 200°
2026-04-25 12:38 40.83909 -73.96771 1998 ft 116 kts 200°
2026-04-25 12:39 40.83198 -73.97272 1997 ft 116 kts 200°
2026-04-25 12:39 40.82494 -73.97725 2001 ft 107 kts 191°
2026-04-25 12:39 40.81812 -73.97993 1989 ft 99 kts 189°
2026-04-25 12:39 40.81180 -73.98235 1986 ft 88 kts 178°
2026-04-25 12:40 40.80606 -73.98253 1980 ft 77 kts 159°
2026-04-25 12:40 40.80201 -73.97815 1997 ft 79 kts 135°
2026-04-25 12:40 40.79784 -73.97321 2007 ft 80 kts 135°
2026-04-25 12:40 40.79385 -73.96806 2015 ft 81 kts 129°
2026-04-25 12:41 40.79012 -73.96258 2020 ft 81 kts 130°
2026-04-25 12:41 40.78625 -73.95692 1956 ft 88 kts 130°
2026-04-25 12:41 40.78194 -73.95067 1714 ft 95 kts 130°
2026-04-25 12:41 40.78020 -73.94246 1490 ft 100 kts 83°
2026-04-25 12:42 40.78225 -73.93384 1337 ft 99 kts 77°
2026-04-25 12:42 40.78303 -73.93095 1289 ft 98 kts 76°
2026-04-25 12:42 40.78923 -73.91919 1196 ft 92 kts 40°
2026-04-25 12:42 40.79428 -73.91435 1203 ft 91 kts 51°
2026-04-25 12:43 40.79918 -73.90863 1204 ft 94 kts 50°
2026-04-25 12:43 40.80405 -73.90322 1203 ft 89 kts 49°
2026-04-25 12:43 40.81015 -73.89132 1107 ft 84 kts 78°
2026-04-25 12:44 40.81157 -73.88374 1045 ft 85 kts 93°
2026-04-25 12:44 40.81097 -73.87868 1013 ft 84 kts 104°
2026-04-25 12:44 40.80347 -73.86856 719 ft 59 kts 153°
2026-04-25 12:45 40.79955 -73.86706 566 ft 61 kts 154°
2026-04-25 12:45 40.79546 -73.86601 450 ft 58 kts 163°
2026-04-25 12:45 40.78693 -73.86945 116 ft 62 kts 192°
2026-04-25 12:46 40.78323 -73.87244 14 ft 56 kts 213°
2026-04-25 12:46 40.78157 -73.87374 13 ft 24 kts 213°
2026-04-25 12:46 40.78026 -73.87484 12 ft 18 kts 215°
2026-04-25 12:46 40.77979 -73.87564 14 ft 8 kts 283°
2026-04-25 12:47 40.78014 -73.87631 14 ft 12 kts 303°
2026-04-25 12:47 40.78047 -73.87719 14 ft 9 kts 243°
2026-04-25 12:47 40.77984 -73.87777 14 ft 16 kts 212°
2026-04-25 12:47 40.77894 -73.87852 17 ft 14 kts 212°
2026-04-25 12:48 40.77806 -73.87916 18 ft 19 kts 215°
2026-04-25 12:48 40.77761 -73.88062 18 ft 7 kts 266°
2026-04-25 12:48 40.77761 -73.88064 18 ft 0 kts 232°
2026-04-25 12:54 40.77757 -73.88075 18 ft 5 kts 254°
2026-04-25 12:54 40.77795 -73.88057 17 ft 9 kts 61°
2026-04-25 12:54 40.77836 -73.88004 18 ft 10 kts 34°
2026-04-25 12:55 40.77873 -73.87973 17 ft 0 kts 32°
2026-04-25 12:55 40.77938 -73.87919 16 ft 18 kts 32°
2026-04-25 12:56 40.78045 -73.87832 12 ft 12 kts 11°
2026-04-25 12:56 40.78129 -73.87855 13 ft 6 kts 346°
2026-04-25 12:56 40.78144 -73.87859 13 ft 4 kts 346°
2026-04-25 12:56 40.78194 -73.87861 14 ft 10 kts 32°
2026-04-25 12:57 40.78171 -73.87724 12 ft 30 kts 121°
2026-04-25 12:57 40.78030 -73.87423 14 ft 49 kts 120°
2026-04-25 12:57 40.77779 -73.86878 285 ft 91 kts 118°
2026-04-25 12:57 40.77613 -73.86044 798 ft 115 kts 82°
2026-04-25 12:58 40.78229 -73.85154 994 ft 151 kts 32°
2026-04-25 12:58 40.79171 -73.84622 1169 ft 133 kts 28°
2026-04-25 12:58 40.79954 -73.84227 1274 ft 111 kts 24°
2026-04-25 12:58 40.80697 -73.84177 1365 ft 102 kts
2026-04-25 12:59 40.81331 -73.84545 1425 ft 105 kts 310°
2026-04-25 12:59 40.81788 -73.85277 1524 ft 102 kts 336°
2026-04-25 12:59 40.82396 -73.85728 1641 ft 97 kts 335°
2026-04-25 12:59 40.82966 -73.86192 1755 ft 96 kts 327°
2026-04-25 13:00 40.83525 -73.86733 1893 ft 113 kts 328°
2026-04-25 13:00 40.83954 -73.87210 2031 ft 129 kts 320°
2026-04-25 13:00 40.84615 -73.88763 2065 ft 161 kts 293°
2026-04-25 13:00 40.85098 -73.90147 2014 ft 161 kts 294°
2026-04-25 13:01 40.85453 -73.91462 1990 ft 145 kts 270°
2026-04-25 13:01 40.85374 -73.92725 1993 ft 135 kts 254°
2026-04-25 13:01 40.85031 -73.93828 1991 ft 128 kts 236°
2026-04-25 13:01 40.84639 -73.94845 1994 ft 121 kts 232°
2026-04-25 13:02 40.84150 -73.95713 1989 ft 115 kts 214°
2026-04-25 13:02 40.83552 -73.96390 1996 ft 114 kts 209°
2026-04-25 13:02 40.82900 -73.97015 2000 ft 116 kts 207°
2026-04-25 13:02 40.82232 -73.97659 2009 ft 120 kts 208°
2026-04-25 13:03 40.81525 -73.98250 2008 ft 121 kts 197°
2026-04-25 13:03 40.80747 -73.98715 2009 ft 123 kts 198°
2026-04-25 13:03 40.79983 -73.99219 1997 ft 123 kts 199°
2026-04-25 13:03 40.79267 -73.99702 1996 ft 107 kts 198°
2026-04-25 13:04 40.78637 -74.00152 1987 ft 101 kts 199°
2026-04-25 13:04 40.78031 -74.00592 2017 ft 99 kts 199°
2026-04-25 13:04 40.77440 -74.01011 2022 ft 95 kts 198°
2026-04-25 13:04 40.76848 -74.01426 2022 ft 98 kts 195°
2026-04-25 13:05 40.76211 -74.01817 2027 ft 102 kts 191°
2026-04-25 13:05 40.75533 -74.02127 2034 ft 105 kts 190°
2026-04-25 13:05 40.74827 -74.02378 2034 ft 106 kts 185°
2026-04-25 13:05 40.74109 -74.02607 2038 ft 108 kts 185°
2026-04-25 13:06 40.73370 -74.02847 2030 ft 109 kts 186°
2026-04-25 13:06 40.72642 -74.03124 2030 ft 109 kts 191°
2026-04-25 13:06 40.71962 -74.03535 2022 ft 110 kts 202°
2026-04-25 13:06 40.71323 -74.04054 2018 ft 104 kts 202°
2026-04-25 13:07 40.70725 -74.04545 2017 ft 99 kts 201°
2026-04-25 13:07 40.70161 -74.05033 2019 ft 96 kts 201°
2026-04-25 13:07 40.69609 -74.05491 2018 ft 93 kts 197°
2026-04-25 13:07 40.69012 -74.05727 2018 ft 89 kts 185°
2026-04-25 13:08 40.68395 -74.05953 2033 ft 99 kts 185°
2026-04-25 13:08 40.67720 -74.06191 2036 ft 101 kts 185°
2026-04-25 13:08 40.67025 -74.06362 2040 ft 101 kts 176°
2026-04-25 13:08 40.66314 -74.06412 2046 ft 103 kts 175°
2026-04-25 13:09 40.65610 -74.06465 2037 ft 102 kts 176°
2026-04-25 13:09 40.64899 -74.06497 2034 ft 101 kts 171°
2026-04-25 13:09 40.64190 -74.06477 2035 ft 103 kts 171°
2026-04-25 13:09 40.63472 -74.06462 2038 ft 103 kts 171°
2026-04-25 13:10 40.62775 -74.06335 2038 ft 100 kts 160°
2026-04-25 13:10 40.62108 -74.06105 2036 ft 100 kts 160°
2026-04-25 13:10 40.61430 -74.05865 2032 ft 101 kts 160°
2026-04-25 13:10 40.60752 -74.05630 2036 ft 100 kts 159°
2026-04-25 13:11 40.60097 -74.05428 1897 ft 90 kts 160°
2026-04-25 13:11 40.59503 -74.05262 1708 ft 90 kts 159°
2026-04-25 13:11 40.58805 -74.05038 1526 ft 114 kts 156°
2026-04-25 13:11 40.58067 -74.04549 1343 ft 123 kts 147°
2026-04-25 13:12 40.57300 -74.03988 1153 ft 128 kts 147°
2026-04-25 13:12 40.56607 -74.03257 941 ft 127 kts 134°
2026-04-25 13:12 40.55956 -74.02490 721 ft 117 kts 134°
2026-04-25 13:12 40.55576 -74.02063 562 ft 102 kts 135°
2026-04-25 13:13 40.54908 -74.01312 487 ft 90 kts 131°
2026-04-25 13:13 40.54540 -74.00682 490 ft 85 kts 123°
2026-04-25 13:13 40.54194 -74.00065 490 ft 83 kts 123°
2026-04-25 13:13 40.53885 -73.99346 501 ft 103 kts 114°
2026-04-25 13:14 40.53559 -73.98417 511 ft 119 kts 112°
2026-04-25 13:14 40.53333 -73.97332 508 ft 129 kts 102°
2026-04-25 13:14 40.53235 -73.96156 507 ft 130 kts 92°
2026-04-25 13:14 40.53289 -73.94967 499 ft 130 kts 82°
2026-04-25 13:15 40.53520 -73.93807 499 ft 131 kts 78°
2026-04-25 13:15 40.53786 -73.92662 500 ft 133 kts 77°